STARLINK-37443, 68824

Orbit data source: Space-Track

STARLINK-37443, 68824 is a payload satellite owned by SpaceX/Seattle (US) in SSO that was launched on Thu, 23 Apr 2026 UTC via an FALCON 9 launch vehicle from the Air Force Western Test Range (AFWTR). Payload-class satellites include a variety of spacecraft equipped with specific instruments for various scientific and technological missions. These include communications satellites like Starlink; space stations such as the ISS; scientific satellites like the Hubble; Earth observation satellites from companies like Planet Labs, Umbra, and HawkEye 360; GPS; miniature CubeSats for education and research; and military/defense satellites.

Not visible in the next 10 days
Identifier
68824, 2026-089Y
Orbit
SSO
Country
Flag of USUS
Related business
Manufacturer
SpaceX/Seattle
Mission
Operational spacecraft
Bus & Motor
STARLINK V2MO, Unknown motor
Mass
575 kg wet, ~530 kg dry
Launch date (UTC)
2026-04-23 (1 week ago)
Launch vehicle
FALCON 9
Launch site
Air Force Western Test Range (AFWTR)
Object type
Payload
Rocket body
Debris
Shape & HBR
Unknown
Radar Cross Section
RCS unknown

Expand to show TLE details & history
Last TLE update: 7 hours ago

TLE from 7 hours ago
0 STARLINK-37443
1 68824U 26089Y   26121.25002315 -.02279617  13597-2 -79917-2 0  9991
2 68824  97.2832 326.7130 0001687  78.3103  16.1093 15.89387985  2518
Epoch: 2026-05-01T06:00Z
TLE epoch observation values (Epoch: 2026-05-01T06:00:02.000Z)
Latitude
81.52866°
Longitude
-103.91266°
Altitude
316.401 km
Speed
7.726 km/s
True Right ascension
13h 41m 07s
True Declination
81° 28' 30"
Sunlit
Object was in daylight at epoch
Visualization orbit readout
Latitude
Unknown
Longitude
Unknown
Altitude
Unknown
Speed
Unknown
Apparent Right ascension
Unknown
Apparent Declination
Unknown
Sunlit
N/A
Visualization observer readout
Local Sidereal Time
20:31:02
Azimuth
Unknown
Elevation
Unknown
Doppler factor
Unknown
Orbital elements
Apogee altitude
301.993 km
Perigee altitude
299.74 km
Semi-major axis
6,679.003 km
Eccentricity
0.00017
Inclination
97.2832°
RAAN
326.713°
Arg. of periapsis
78.3103°
True anomaly
16.11467°
Mean anomaly
16.1093°
Eccentric anomaly
16.11198°
Mean motion
3.97627 °/min
Orbital period
90.54 mins
BSTAR
-0.0079917
Loading maneuver chart data...
Computing Atmospheric mass density...
Loading historical data...
Loading historical data...
Loading historical data...
Loading historical data...
Loading historical data...
Loading historical data...
Loading historical data...

Documentation

Showing up to 5 results
|